Morrisville, VT

1:31 PM EDT on August 24, 2016 (GMT -0400)
Morrisville Stowe State

Weather History for KMVL - December, 2011

Change the Weather History Date:

Thursday, December 29, 2011

  Actual Average Record
Temperature  
Mean Temperature 10 °F 18 °F  
Max Temperature 20 °F 28 °F 42 °F (2005)
Min Temperature -1 °F 9 °F -6 °F (1997)
Degree Days  
Heating Degree Days 55 47  
Month to date heating degree days 1109 1216  
Since 1 July heating degree days 2508 3044  
Cooling Degree Days 0 0  
Month to date cooling degree days 0 0  
Year to date cooling degree days 337 265  
Moisture  
Dew Point -2 °F    
Average Humidity 61    
Maximum Humidity 87    
Minimum Humidity 34    
Precipitation  
Precipitation T in 0.06 in 0.59 in (2015)
Month to date precipitation 1.69 2.51  
Year to date precipitation 35.71 35.87  
Sea Level Pressure  
Sea Level Pressure 29.93 in    
Wind  
Wind Speed 2 mph (NW)    
Max Wind Speed 17 mph    
Max Gust Speed 24 mph    
Visibility 10 miles    
Events Snow    
T = Trace of Precipitation, MM = Missing Value Source: NWS Daily Summary

Daily Weather History Graph

Daily Weather History Graph

Search for Another Location

Airport or City:

Trip Planner

Search our weather history database for the weather conditions in past years. The results will help you decide how hot, cold, wet, or windy it might be!

Date:

Astronomy

Dec. 29, 2011 Rise Set
Actual Time 7:26 AM EST 4:18 PM EST
Civil Twilight 6:53 AM EST 4:51 PM EST
Nautical Twilight 6:16 AM EST 5:28 PM EST
Astronomical Twilight 5:40 AM EST 6:04 PM EST
Moon 10:06 AM EST (12/29) 10:06 PM EST (12/29)
Length of Visible Light 9h 58m
Length of Day
8h 51m
Waxing Crescent, 26% of the Moon is Illuminated
Dec 29
Waxing Crescent
Jan 1
First Quarter
Jan 9
Full
Jan 16
Last Quarter
Jan 23
New

Hourly Weather History & Observations

Time (EST) Temp. Windchill Dew Point Humidity Pressure Visibility Wind Dir Wind Speed Gust Speed Precip Events Conditions
12:54 AM 10.0 °F -3.7 °F -0.0 °F 64% 29.76 in 9.0 mi NW 10.4 mph 24.2 mph 0.00 in Snow Light Snow
1:12 AM 10.4 °F -1.5 °F -0.4 °F 62% 29.72 in 10.0 mi NW 8.1 mph 16.1 mph 0.00 in   Overcast
1:54 AM 9.0 °F -3.2 °F -2.9 °F 59% 29.78 in 10.0 mi West 8.1 mph 18.4 mph 0.00 in   Mostly Cloudy
2:54 AM 8.1 °F -4.3 °F -4.0 °F 58% 29.83 in 10.0 mi WNW 8.1 mph - N/A   Clear
3:54 AM 7.0 °F -1.7 °F -4.0 °F 61% 29.84 in 10.0 mi Variable 4.6 mph - N/A   Clear
4:54 AM 3.9 °F -5.3 °F -2.9 °F 73% 29.85 in 10.0 mi North 4.6 mph - N/A   Clear
5:54 AM 1.9 °F - -4.0 °F 76% 29.87 in 10.0 mi Calm Calm - N/A   Clear
6:54 AM 1.9 °F - -4.0 °F 76% 29.90 in 10.0 mi Calm Calm - N/A   Clear
7:54 AM -0.9 °F - -5.1 °F 83% 29.91 in 10.0 mi Calm Calm - N/A   Clear
8:54 AM 1.9 °F - -2.0 °F 83% 29.93 in 10.0 mi Calm Calm - N/A   Clear
9:54 AM 6.1 °F - -2.0 °F 69% 29.94 in 10.0 mi Calm Calm - N/A   Clear
10:54 AM 10.0 °F 1.8 °F -2.9 °F 56% 29.93 in 10.0 mi NE 4.6 mph - N/A   Clear
12:54 PM 19.0 °F 12.3 °F -5.1 °F 34% 29.90 in 10.0 mi Variable 4.6 mph - N/A   Clear
1:54 PM 19.0 °F 11.1 °F -4.0 °F 36% 29.91 in 10.0 mi Variable 5.8 mph - N/A   Clear
2:54 PM 19.0 °F 9.0 °F -4.0 °F 36% 29.93 in 10.0 mi WNW 8.1 mph - N/A   Clear
3:54 PM 16.0 °F - -0.9 °F 47% 29.95 in 10.0 mi Calm Calm - N/A   Clear
4:54 PM 10.9 °F - -0.0 °F 61% 29.98 in 10.0 mi Calm Calm - N/A   Clear
5:54 PM 9.0 °F - 1.0 °F 70% 30.00 in 10.0 mi Calm Calm - N/A   Clear
6:54 PM 6.1 °F - 1.0 °F 80% 30.02 in 10.0 mi Calm Calm - N/A   Clear
7:54 PM 3.9 °F - -0.9 °F 80% 30.04 in 10.0 mi Calm Calm - N/A   Clear
8:54 PM 3.9 °F - -0.9 °F 80% 30.04 in 10.0 mi Calm Calm - N/A   Clear
9:54 PM 1.9 °F - -2.9 °F 80% 30.06 in 10.0 mi Calm Calm - N/A   Clear
10:54 PM 1.9 °F - -2.9 °F 80% 30.08 in 10.0 mi Calm Calm - N/A   Clear
11:54 PM 1.0 °F - -4.0 °F 79% 30.08 in 10.0 mi Calm Calm - N/A   Clear